Probability
0 0 1 1 1 1 0 0 0 0 2 4 7 10 15 21 23 21 18 17 15 15 15 14 13 13 13 13 13 16 18 19 17 14 12 12 14 18 18 15 11 9 8 9
0 0 1 2 2 1 0 0 0 1 3 6 9 13 18 22 22 19 16 15 15 15 15 15 15 15 15 15 15 16 18 19 17 14 11 11 13 16 16 14 12 11 11 12
0 0 1 2 2 2 2 1 2 3 5 8 11 15 19 21 19 17 14 14 15 15 15 16 17 19 18 18 18 18 18 20 19 15 12 11 11 11 11 12 12 13 13 14
0 0 0 1 2 4 5 5 4 5 7 9 12 14 17 18 17 16 16 16 16 16 16 17 18 20 20 20 21 22 21 22 19 15 13 12 12 11 12 13 13 12 11 11
0 0 1 2 4 6 8 7 7 8 9 12 15 16 16 15 15 17 19 18 16 17 19 19 19 19 19 18 19 22 23 22 19 16 14 15 14 15 16 16 15 13 10 8
0 0 1 3 4 6 6 6 7 8 11 15 18 16 12 12 14 17 18 17 17 18 20 20 20 19 18 15 14 17 21 21 20 19 19 18 17 18 18 17 17 15 11 9
0 0 1 3 5 4 4 4 5 8 12 17 18 14 9 9 13 14 13 14 18 19 18 17 18 19 17 14 12 13 16 19 20 22 22 21 19 19 18 16 16 15 13 11
1 1 1 3 5 4 2 3 5 8 12 16 16 13 9 8 11 12 11 12 15 18 17 14 13 15 16 15 13 12 14 17 19 21 22 22 21 19 17 16 15 15 14 14
3 3 3 4 5 4 3 4 6 9 11 13 13 12 9 9 10 12 12 11 12 14 15 14 12 13 15 15 14 14 16 17 19 20 20 20 21 19 18 17 16 15 16 17
5 4 4 5 5 4 4 6 7 8 9 10 10 9 8 8 9 10 11 10 11 12 13 13 13 13 14 15 15 17 18 18 19 19 18 18 19 19 17 16 15 15 17 19
3 3 3 3 3 3 4 5 6 6 7 6 7 7 7 8 7 7 7 8 10 11 11 10 10 11 13 13 14 16 17 17 16 15 15 16 17 17 15 14 13 14 16 17
1 1 1 1 1 1 2 2 3 3 4 4 5 6 8 7 6 5 5 7 9 10 10 8 7 8 9 10 12 14 15 14 12 11 13 14 15 15 13 11 9 9 10 11
0 1 1 1 0 0 0 0 0 1 1 2 4 6 8 7 6 5 5 7 8 10 9 8 7 6 6 7 9 12 12 11 10 10 11 13 14 15 14 10 6 4 3 3
1 1 2 1 1 1 0 0 0 0 0 1 3 6 7 7 6 6 6 7 8 9 9 9 7 6 4 5 7 9 10 9 10 11 11 12 14 15 14 11 8 4 1 0
1 2 2 2 1 1 0 0 0 0 0 1 3 5 6 6 6 6 6 7 8 9 10 9 8 5 3 3 5 6 8 9 9 10 10 11 13 14 13 11 8 6 2 1
1 2 3 3 2 2 1 0 0 0 0 0 1 3 4 5 6 7 8 8 7 8 8 7 5 2 1 1 3 5 7 7 7 7 7 8 11 12 11 8 7 5 4 2
0 1 2 2 2 2 1 0 0 0 0 0 1 2 3 5 6 7 7 6 5 4 4 3 2 0 0 0 1 4 6 6 5 5 5 6 9 10 8 6 4 4 3 2
0 0 1 1 1 1 1 0 0 0 0 0 0 1 3 4 4 4 4 3 2 1 1 1 0 0 0 0 1 3 5 6 5 5 6 7 8 8 6 3 2 3 3 2
0 0 0 0 1 2 2 1 0 0 0 0 0 1 2 3 3 2 1 0 0 0 0 1 0 0 0 0 1 3 4 6 6 6 7 7 7 6 4 2 1 1 2 3
0 0 0 0 1 2 2 1 0 0 0 0 0 0 1 3 3 3 2 1 0 0 0 0 0 0 0 0 1 2 4 6 6 7 7 6 6 6 4 2 1 1 2 3
0 0 0 0 0 1 1 1 0 0 0 0 0 0 1 2 3 3 2 1 0 0 0 0 0 0 0 0 1 2 4 5 6 6 6 5 6 6 5 4 2 2 3 3
0 0 0 0 0 0 0 0 0 0 0 0 0 0 0 1 2 2 2 1 0 0 0 0 0 0 0 0 1 3 3 4 6 6 5 4 5 6 6 6 5 4 3 3
0 0 0 0 0 0 0 0 0 0 0 0 0 0 0 0 1 1 1 0 0 0 0 0 0 0 0 1 2 3 3 4 5 5 4 4 4 6 6 6 6 5 4 3
0 0 0 0 0 0 0 0 0 0 0 0 0 0 0 0 0 0 0 0 0 0 0 0 0 0 0 1 2 2 2 3 4 4 3 3 4 5 6 6 6 5 4 3
0 0 0 0 0 0 0 0 0 0 0 0 0 0 0 0 0 0 0 0 0 0 0 0 0 0 0 0 1 1 1 1 1 1 2 3 3 3 4 4 4 3 2 1
0 0 0 0 0 0 0 0 0 0 0 0 0 0 0 0 0 0 0 0 0 0 0 0 0 0 0 0 0 0 0 0 0 0 1 2 2 2 2 2 2 1 1 0
0 0 0 0 0 0 0 0 0 0 0 0 0 0 0 0 0 0 0 0 0 0 0 0 0 0 0 0 0 0 0 0 0 0 0 1 1 1 1 1 1 0 0 0
Wind_Speed
2 2 3 2 2 4 4 7 8 8 7 6 5 4 4 3 4 5 4 3 4 3 3 3 3 2 2 2 3 3 4 4 5 4 4 3 3 4 4 4 5 4 4 4
1 1 2 1 1 3 3 3 3 3 4 3 1 2 3 3 5 4 3 3 3 3 3 3 3 3 2 2 2 3 3 4 3 3 3 3 3 3 3 3 4 4 4 4
1 2 3 2 3 1 1 0 3 5 5 3 2 3 3 3 3 3 3 3 3 3 3 2 3 3 3 3 2 3 3 3 3 3 3 3 4 3 3 3 3 4 4 4
2 3 2 4 1 2 3 2 1 2 2 3 2 2 2 2 3 3 2 2 2 2 2 2 2 2 2 2 2 2 2 2 2 3 3 3 3 4 4 3 3 3 4 4
4 3 1 2 1 1 1 2 2 1 2 2 3 4 2 1 2 2 3 2 2 2 2 2 2 2 2 2 1 1 1 2 2 3 4 4 4 5 4 3 3 3 4 4
4 4 5 4 4 3 3 1 2 1 2 2 3 2 2 1 1 1 1 1 1 2 2 1 1 2 3 2 1 2 3 3 3 3 3 4 4 4 3 3 3 3 3 3
4 3 4 4 6 2 3 4 1 1 2 2 2 3 2 1 1 1 1 1 1 2 1 1 1 2 2 2 3 4 3 2 2 3 4 4 3 2 3 3 3 3 3 3
3 3 4 4 3 2 2 1 1 1 1 2 2 1 1 2 1 1 1 1 2 2 1 1 1 1 2 3 3 2 2 2 2 3 3 2 2 2 2 3 3 3 3 3
4 4 3 2 0 0 2 2 1 1 1 2 2 1 1 1 1 1 1 1 1 1 1 1 0 2 3 3 2 1 2 2 2 2 2 2 2 2 2 2 3 3 3 3
2 1 2 2 2 2 2 2 1 1 1 2 2 1 1 1 1 1 1 1 1 2 2 2 2 1 2 2 2 2 2 2 2 2 2 2 2 2 3 3 3 3 3 4
1 1 2 3 2 2 2 2 2 2 1 2 2 0 0 0 0 1 1 1 1 0 1 3 2 2 2 2 1 1 2 2 2 2 2 2 2 2 3 3 4 5 4 4
5 5 3 3 2 1 2 2 2 2 2 1 1 1 0 1 1 1 1 1 1 1 2 3 2 2 3 2 1 1 1 2 2 2 1 1 2 1 0 1 2 3 4 4
4 3 2 2 1 1 1 1 1 1 0 1 1 0 1 1 0 1 1 1 1 2 2 3 2 3 3 2 1 1 2 2 1 2 2 2 2 2 1 1 2 1 1 3
3 3 1 1 2 1 0 1 2 2 2 1 1 1 1 1 1 1 2 2 2 2 2 3 3 3 3 2 1 1 2 2 1 2 2 2 2 2 2 2 1 1 1 1
2 3 4 2 0 0 1 2 2 2 3 3 2 1 1 2 2 3 3 2 1 2 2 3 3 4 3 2 1 1 1 1 1 1 1 1 1 1 1 2 2 1 1 1
1 1 2 2 1 0 1 1 1 1 2 3 3 3 2 2 3 3 2 1 1 3 3 3 3 3 3 2 1 1 1 2 1 1 0 0 1 1 1 1 1 2 1 1
3 2 1 1 1 1 1 2 1 2 2 2 3 3 2 2 2 2 3 2 2 3 3 2 3 3 3 2 1 1 1 1 0 0 0 0 1 1 1 1 1 1 1 1
4 5 5 5 4 2 2 1 1 1 2 2 2 1 1 2 2 3 2 2 1 2 2 2 3 3 3 3 2 1 0 1 1 1 1 1 1 1 1 2 1 1 1 1
2 3 3 3 3 3 2 1 1 2 2 1 1 1 2 2 2 2 1 1 1 2 3 3 3 3 3 3 2 1 1 1 0 0 1 1 1 1 1 2 1 1 1 2
2 2 3 2 2 2 1 2 1 1 1 1 0 1 2 3 2 2 1 2 3 2 2 2 2 2 3 3 2 1 1 0 1 1 1 1 1 1 1 1 1 1 1 1
2 2 2 2 2 1 1 2 1 2 2 1 1 1 2 2 2 1 1 2 4 2 2 2 2 2 2 2 1 0 0 0 0 1 1 1 1 1 1 1 1 1 1 1
2 2 2 2 2 1 2 2 2 2 2 1 1 1 1 2 2 2 2 3 3 3 2 1 1 1 1 1 1 1 1 1 1 1 1 1 1 1 1 1 1 1 2 2
2 2 2 2 2 2 2 2 2 2 2 3 2 2 2 3 2 2 3 3 2 2 2 1 2 2 1 1 1 1 1 1 0 0 1 1 1 1 2 2 2 2 2 2
1 1 1 1 1 1 1 2 1 1 2 2 2 3 3 2 2 2 3 3 3 2 1 1 2 2 1 0 1 1 1 0 0 0 0 1 1 1 1 1 1 1 1 2
0 1 1 1 1 1 1 1 1 1 1 1 2 3 2 2 2 2 2 2 2 1 1 1 1 1 0 1 1 0 0 0 0 0 1 1 1 1 1 1 1 1 1 2
1 1 1 1 1 1 1 1 0 1 0 1 2 2 1 1 1 1 1 1 1 0 0 0 1 1 1 1 0 0 0 0 0 0 1 1 1 1 1 1 1 1 1 1
1 1 1 1 1 0 1 1 1 1 1 1 1 2 1 1 1 1 1 0 1 1 1 1 1 1 0 0 0 0 0 0 0 0 0 1 1 1 1 1 0 0 1 1
Wind_Direction
192 199 164 167 192 181 182 179 179 210 205 232 228 200 174 155 137 121 119 120 123 128 124 119 121 133 149 157 158 163 166 181 197 199 197 200 209 212 214 215 219 217 213 214
52 33 144 91 331 199 198 172 182 161 229 241 155 115 125 147 150 142 143 145 131 120 116 133 148 150 145 153 163 161 169 186 193 191 189 192 213 225 222 222 224 216 216 216
194 316 61 355 303 226 156 146 171 199 220 157 129 149 172 164 148 160 164 151 142 149 157 165 170 160 164 173 159 161 180 190 190 192 200 204 211 211 221 230 229 224 222 218
116 86 179 238 322 88 96 32 20 161 161 168 178 167 152 151 155 170 169 156 166 173 180 175 158 154 152 138 147 169 189 204 207 204 213 216 213 221 226 230 232 232 227 222
113 130 244 284 5 50 119 356 344 145 133 119 102 68 12 25 157 181 178 181 192 185 187 175 165 152 129 122 129 175 219 232 235 225 223 218 219 228 233 224 228 231 223 216
117 137 208 241 299 299 117 309 306 146 149 144 107 112 255 338 59 71 67 124 147 144 138 144 177 158 143 157 188 234 239 242 244 241 239 234 231 234 234 227 230 219 223 220
130 160 249 281 302 345 153 228 294 124 146 136 150 194 211 96 78 104 84 59 96 111 132 173 166 148 166 197 228 243 249 255 253 246 244 239 234 232 232 227 225 221 215 218
133 153 238 319 8 108 208 283 67 96 115 109 106 85 97 109 110 97 76 65 95 99 28 345 109 151 210 237 247 246 238 254 266 262 256 249 229 237 228 217 216 215 207 219
169 195 251 299 104 166 140 117 105 123 118 116 105 99 103 96 61 21 28 25 56 97 62 345 289 187 229 257 258 233 232 245 255 261 263 249 226 229 235 222 221 224 214 222
75 319 321 349 38 42 53 105 149 146 137 117 112 113 30 7 8 12 358 346 9 50 26 321 313 295 260 262 242 225 232 236 232 229 239 236 229 218 219 226 229 226 220 221
77 291 359 359 26 36 35 66 72 66 82 114 108 99 191 144 322 308 353 351 9 53 276 284 296 312 305 285 213 221 235 234 235 230 219 228 234 227 224 229 225 224 223 208
207 215 187 235 272 24 54 49 43 48 23 29 113 178 228 273 277 290 313 343 344 332 311 295 299 311 309 301 239 196 226 243 242 238 221 212 221 253 333 233 254 226 219 203
206 203 196 222 284 343 59 32 15 26 31 334 330 263 233 260 285 274 286 296 295 301 291 290 301 306 304 300 260 211 227 240 241 238 227 216 211 212 248 354 28 11 222 189
178 142 143 239 248 259 50 36 46 32 6 344 324 331 338 317 296 265 270 275 275 277 281 283 286 290 296 300 270 242 237 242 238 241 238 232 220 210 212 208 215 348 20 166
199 179 188 202 188 28 37 59 53 16 355 342 326 304 283 276 276 276 275 271 276 280 282 284 290 300 314 316 294 272 265 253 234 237 235 217 209 202 198 197 187 160 91 55
174 103 126 127 136 78 33 43 64 318 312 308 302 284 267 255 266 277 280 273 272 281 289 295 295 301 310 312 308 290 270 268 258 237 215 171 156 165 178 188 188 167 166 163
147 177 177 182 213 236 255 255 235 249 274 291 291 288 298 306 311 301 302 305 267 267 280 287 298 311 314 307 287 275 270 272 279 154 150 132 150 171 175 172 176 172 169 156
192 197 194 185 189 207 248 268 268 273 275 282 293 308 317 311 304 305 310 320 328 327 320 311 315 325 321 319 314 309 260 240 205 188 166 149 162 164 154 149 148 152 117 111
163 171 180 185 192 190 205 234 248 263 276 294 306 314 316 317 311 307 320 336 325 308 305 312 321 325 316 316 323 305 252 207 174 169 158 148 146 135 133 134 140 141 134 125
148 165 173 190 203 191 206 244 256 272 282 262 262 342 338 327 329 325 319 293 278 269 281 303 322 319 311 311 321 294 271 222 183 178 151 136 137 131 131 136 140 135 129 129
183 195 200 207 224 215 207 214 227 261 280 255 216 257 286 300 311 314 314 304 306 304 296 293 297 309 321 326 337 358 316 64 116 143 135 128 130 133 134 138 144 151 150 151
216 210 219 218 211 237 251 237 232 242 257 277 265 270 290 299 309 318 288 265 281 299 304 290 286 296 321 353 40 61 70 84 86 108 137 158 165 171 179 172 170 170 170 178
230 222 218 214 205 227 263 265 245 236 251 257 252 250 253 263 259 255 287 285 281 285 284 284 299 318 350 55 73 82 80 87 103 158 191 197 196 192 191 191 184 180 179 180
239 229 223 209 161 173 250 288 280 256 260 267 260 248 242 258 280 260 247 277 291 291 292 305 318 332 3 74 73 64 54 68 95 145 186 193 190 188 196 198 189 187 180 173
168 161 159 156 175 210 226 272 309 305 320 316 310 302 274 234 232 266 276 272 283 303 322 340 338 325 12 74 75 60 30 40 151 159 164 181 204 213 219 205 189 187 182 177
131 163 205 206 192 192 186 181 218 295 328 349 331 324 334 332 273 272 278 274 289 348 1 326 341 5 31 59 74 83 51 37 69 136 159 172 195 193 162 132 155 179 178 174
75 71 61 34 16 151 177 171 183 229 218 172 307 321 342 359 2 7 19 27 35 31 20 8 31 57 72 89 89 50 292 247 215 197 185 171 161 154 162 172 178 163 167 161